Tracking 31080 objects as of 20-Jul-2025
HD Live streaming from Space Station
objects crossing your sky now

CZ-6A DEB

Track CZ-6A DEB now!
10-day predictions


NORAD ID: 54625
Int'l Code: 2022-151PB
Perigee: 833.6 km
Apogee: 1,026.6 km
Inclination: 98.9 °
Period: 103.5 minutes
Semi major axis: 7301 km
RCS: Unknown
Launch date: November 11, 2022
Source: People's Republic of China (PRC)
Launch site: Taiyaun Space Center, China (TSC)

Note: This is SATELLITE DEBRIS
Your satellite tracking list
Your tracking list is empty




NASA's NSSDC Master Catalog

Two Line Element Set (TLE):
1 54625U 22151PB  25200.89245504  .00000164  00000-0  15217-3 0  9999
2 54625  98.8982 176.6734 0132143 285.6020  73.0589 13.91621507135094
Source of the keplerian elements: AFSPC